UAE409 OMDB-OPPS

Flight info

Callsign UAE409
Flight time N/A
Altitude 37000
Route DAVMO M318 KHM A453 ZDN G452 KALAT G325 LAKRA P500 HANGU
Aircraft B77W/H-SDE1E2E3FGHIJ2J3J4J5M1RWXY/LB1D1

Departure

Time N/A
Airport Dubai International Airport (OMDB)

Arrival

Time 2026-04-15 03:56
Airport Bacha Khan International Airport (OPPS)
Time Latitude Longitude Altitude Speed Heading
2026-04-15 03:13 31.51955 69.56793 36974 ft 505 kts 21°
2026-04-15 03:13 31.57936 69.61199 36984 ft 512 kts 27°
2026-04-15 03:14 31.63923 69.65933 36987 ft 523 kts 26°
2026-04-15 03:14 31.70001 69.70432 36979 ft 522 kts 24°
2026-04-15 03:15 31.76229 69.74822 36956 ft 521 kts 24°
2026-04-15 03:15 31.82450 69.79180 36961 ft 518 kts 24°
2026-04-15 03:16 31.88606 69.83545 36952 ft 515 kts 24°
2026-04-15 03:16 31.94728 69.87919 36944 ft 514 kts 24°
2026-04-15 03:17 31.99786 69.91550 36938 ft 511 kts 24°
2026-04-15 03:17 32.06840 69.96605 36922 ft 510 kts 24°
2026-04-15 03:18 32.12924 70.00954 36925 ft 512 kts 24°
2026-04-15 03:18 32.18026 70.04614 36917 ft 513 kts 25°
2026-04-15 03:19 32.24140 70.09017 36909 ft 514 kts 25°
2026-04-15 03:19 32.30260 70.13431 36911 ft 515 kts 25°
2026-04-15 03:20 32.36346 70.17827 36914 ft 516 kts 25°
2026-04-15 03:20 32.42446 70.22154 36682 ft 504 kts 24°
2026-04-15 03:20 32.45455 70.24241 36224 ft 499 kts 23°
2026-04-15 03:21 32.48472 70.26319 35463 ft 501 kts 23°
2026-04-15 03:21 32.54516 70.30490 34135 ft 502 kts 24°
2026-04-15 03:21 32.57502 70.32578 33689 ft 496 kts 25°
2026-04-15 03:22 32.60410 70.34623 33253 ft 490 kts 25°
2026-04-15 03:22 32.63374 70.36706 32742 ft 485 kts 24°
2026-04-15 03:22 32.66257 70.38760 32179 ft 483 kts 26°
2026-04-15 03:22 32.69110 70.40890 31614 ft 482 kts 27°
2026-04-15 03:23 32.71924 70.43051 31059 ft 477 kts 27°
2026-04-15 03:23 32.74623 70.45151 30450 ft 470 kts 27°
2026-04-15 03:23 32.77342 70.47264 29884 ft 460 kts 27°
2026-04-15 03:23 32.80011 70.49323 29243 ft 453 kts 27°
2026-04-15 03:24 32.82644 70.51337 28621 ft 447 kts 27°
2026-04-15 03:24 32.85242 70.53310 28029 ft 442 kts 27°
2026-04-15 03:24 32.87831 70.55275 27429 ft 437 kts 28°
2026-04-15 03:24 32.90225 70.57493 26818 ft 440 kts 45°
2026-04-15 03:25 32.91820 70.60590 26238 ft 442 kts 69°
2026-04-15 03:25 32.92334 70.64153 25693 ft 439 kts 93°
2026-04-15 03:25 32.91836 70.67715 25180 ft 431 kts 109°
2026-04-15 03:25 32.90742 70.71004 24655 ft 425 kts 120°
2026-04-15 03:26 32.89199 70.73890 24128 ft 419 kts 132°
2026-04-15 03:26 32.87088 70.76310 23641 ft 422 kts 148°
2026-04-15 03:26 32.84521 70.77932 23065 ft 415 kts 165°
2026-04-15 03:26 32.81728 70.78591 22465 ft 407 kts 181°
2026-04-15 03:27 32.78921 70.78386 21875 ft 401 kts 193°
2026-04-15 03:27 32.76227 70.77600 21313 ft 394 kts 202°
2026-04-15 03:27 32.73804 70.76176 20708 ft 386 kts 217°
2026-04-15 03:27 32.71691 70.74327 20152 ft 374 kts 220°
2026-04-15 03:28 32.69638 70.72461 19581 ft 366 kts 218°
2026-04-15 03:28 32.67524 70.70826 19027 ft 360 kts 212°
2026-04-15 03:28 32.65343 70.69364 18514 ft 361 kts 211°
2026-04-15 03:28 32.63154 70.67868 17980 ft 366 kts 212°
2026-04-15 03:29 32.60969 70.66295 17393 ft 369 kts 213°
2026-04-15 03:29 32.58802 70.64666 16811 ft 367 kts 216°
2026-04-15 03:29 32.56850 70.62777 16200 ft 356 kts 230°
2026-04-15 03:29 32.55623 70.60264 15643 ft 354 kts 252°
2026-04-15 03:30 32.55066 70.57439 15117 ft 355 kts 263°
2026-04-15 03:30 32.54865 70.54546 14585 ft 355 kts 269°
2026-04-15 03:30 32.54996 70.51669 14034 ft 346 kts 279°
2026-04-15 03:30 32.55649 70.48920 13486 ft 347 kts 294°
2026-04-15 03:31 32.56857 70.46455 12900 ft 350 kts 308°
2026-04-15 03:31 32.58557 70.44361 12338 ft 352 kts 321°
2026-04-15 03:31 32.60601 70.42782 11797 ft 353 kts 334°
2026-04-15 03:31 32.62906 70.41773 11237 ft 354 kts 347°
2026-04-15 03:32 32.65361 70.41407 10691 ft 355 kts 360°
2026-04-15 03:32 32.67818 70.41593 10201 ft 355 kts
2026-04-15 03:32 32.70175 70.42174 9989 ft 336 kts 17°
2026-04-15 03:32 32.72186 70.43400 9910 ft 316 kts 37°
2026-04-15 03:33 32.73922 70.45027 9895 ft 321 kts 39°
2026-04-15 03:33 32.75699 70.46611 9875 ft 318 kts 34°
2026-04-15 03:33 32.77563 70.47964 9892 ft 316 kts 30°
2026-04-15 03:33 32.79506 70.49257 9903 ft 321 kts 29°
2026-04-15 03:34 32.81465 70.50592 9901 ft 324 kts 30°
2026-04-15 03:34 32.83384 70.51963 9889 ft 319 kts 31°
2026-04-15 03:34 32.85235 70.53325 9889 ft 316 kts 32°
2026-04-15 03:34 32.87102 70.54712 9897 ft 317 kts 32°
2026-04-15 03:35 32.88991 70.56137 9898 ft 318 kts 32°
2026-04-15 03:35 32.90831 70.57544 9898 ft 320 kts 32°
2026-04-15 03:35 32.92688 70.59016 9891 ft 321 kts 35°
2026-04-15 03:35 32.94435 70.60643 9667 ft 318 kts 42°
2026-04-15 03:36 32.95975 70.62525 9340 ft 316 kts 49°
2026-04-15 03:36 32.97343 70.64573 9066 ft 315 kts 53°
2026-04-15 03:36 32.98633 70.66665 8774 ft 314 kts 53°
2026-04-15 03:36 32.99924 70.68766 8545 ft 316 kts 53°
2026-04-15 03:37 33.01242 70.70872 8345 ft 320 kts 52°
2026-04-15 03:37 33.02596 70.72987 8112 ft 316 kts 52°
2026-04-15 03:37 33.03922 70.75022 7888 ft 311 kts 51°
2026-04-15 03:37 33.05262 70.77054 7672 ft 307 kts 51°
2026-04-15 03:38 33.06579 70.79035 7447 ft 304 kts 51°
2026-04-15 03:38 33.07893 70.81001 7234 ft 303 kts 51°
2026-04-15 03:38 33.09202 70.82957 7099 ft 300 kts 51°
2026-04-15 03:38 33.10511 70.84908 7058 ft 303 kts 51°
2026-04-15 03:39 33.11838 70.86887 7022 ft 306 kts 51°
2026-04-15 03:39 33.13168 70.88874 7002 ft 305 kts 51°
2026-04-15 03:39 33.14482 70.90839 7019 ft 304 kts 51°
2026-04-15 03:39 33.15806 70.92819 7001 ft 304 kts 51°
2026-04-15 03:40 33.17123 70.94789 7002 ft 303 kts 51°
2026-04-15 03:40 33.18436 70.96754 7006 ft 302 kts 51°
2026-04-15 03:40 33.19747 70.98718 7014 ft 302 kts 51°
2026-04-15 03:40 33.21038 71.00652 7007 ft 301 kts 51°
2026-04-15 03:41 33.22342 71.02610 7017 ft 301 kts 51°
2026-04-15 03:41 33.23662 71.04592 7014 ft 302 kts 51°
2026-04-15 03:41 33.24953 71.06534 7021 ft 303 kts 51°
2026-04-15 03:41 33.26268 71.08508 7017 ft 304 kts 51°
2026-04-15 03:42 33.27602 71.10515 7020 ft 305 kts 51°
2026-04-15 03:42 33.28926 71.12501 7012 ft 305 kts 51°
2026-04-15 03:42 33.30223 71.14452 7001 ft 304 kts 51°
2026-04-15 03:42 33.31528 71.16418 7004 ft 302 kts 51°
2026-04-15 03:43 33.32839 71.18394 7004 ft 301 kts 51°
2026-04-15 03:43 33.34163 71.20389 7006 ft 301 kts 51°
2026-04-15 03:43 33.35439 71.22313 7013 ft 300 kts 51°
2026-04-15 03:43 33.36736 71.24271 7001 ft 300 kts 51°
2026-04-15 03:44 33.38036 71.26235 7006 ft 300 kts 51°
2026-04-15 03:44 33.39351 71.28220 7008 ft 300 kts 51°
2026-04-15 03:44 33.40634 71.30158 7005 ft 301 kts 51°
2026-04-15 03:44 33.41936 71.32126 7007 ft 302 kts 51°
2026-04-15 03:45 33.43240 71.34102 7011 ft 302 kts 51°
2026-04-15 03:45 33.44538 71.36069 7015 ft 303 kts 51°
2026-04-15 03:45 33.45846 71.38052 7013 ft 304 kts 51°
2026-04-15 03:45 33.47160 71.40039 7007 ft 304 kts 51°
2026-04-15 03:46 33.48472 71.42027 7014 ft 304 kts 51°
2026-04-15 03:46 33.49784 71.44019 7000 ft 304 kts 51°
2026-04-15 03:46 33.51103 71.46006 7001 ft 304 kts 49°
2026-04-15 03:46 33.52570 71.47767 6993 ft 294 kts 34°
2026-04-15 03:47 33.54367 71.48965 7021 ft 299 kts 24°
2026-04-15 03:47 33.56249 71.50029 7008 ft 301 kts 25°
2026-04-15 03:47 33.58114 71.51186 7002 ft 302 kts 27°
2026-04-15 03:47 33.59896 71.52384 6981 ft 287 kts 29°
2026-04-15 03:48 33.61566 71.53550 6971 ft 261 kts 29°
2026-04-15 03:48 33.63072 71.54509 6954 ft 239 kts 20°
2026-04-15 03:48 33.64681 71.54961 6757 ft 235 kts 356°
2026-04-15 03:48 33.66262 71.54572 6638 ft 226 kts 343°
2026-04-15 03:49 33.67767 71.54181 6640 ft 224 kts 353°
2026-04-15 03:49 33.69308 71.54018 6604 ft 224 kts 355°
2026-04-15 03:49 33.70883 71.53895 6348 ft 227 kts 355°
2026-04-15 03:49 33.72469 71.53765 6099 ft 228 kts 355°
2026-04-15 03:50 33.74013 71.53632 5785 ft 214 kts 355°
2026-04-15 03:50 33.75422 71.53511 5489 ft 193 kts 355°
2026-04-15 03:50 33.76764 71.53402 5249 ft 191 kts 356°
2026-04-15 03:50 33.78052 71.53290 4996 ft 181 kts 355°
2026-04-15 03:51 33.79284 71.53184 4777 ft 177 kts 355°
2026-04-15 03:51 33.80520 71.53077 4580 ft 179 kts 355°
2026-04-15 03:51 33.81767 71.52970 4349 ft 179 kts 355°
2026-04-15 03:51 33.82988 71.52867 4086 ft 172 kts 355°
2026-04-15 03:52 33.84137 71.52770 3873 ft 159 kts 355°
2026-04-15 03:52 33.85224 71.52676 3711 ft 156 kts 355°
2026-04-15 03:52 33.86320 71.52579 3495 ft 159 kts 355°
2026-04-15 03:52 33.87420 71.52487 3308 ft 156 kts 355°
2026-04-15 03:53 33.88475 71.52396 3085 ft 150 kts 355°
2026-04-15 03:53 33.89489 71.52313 2898 ft 147 kts 355°
2026-04-15 03:53 33.90527 71.52217 2722 ft 150 kts 355°
2026-04-15 03:53 33.91572 71.52126 2522 ft 150 kts 355°
2026-04-15 03:54 33.92604 71.52039 2332 ft 148 kts 356°
2026-04-15 03:54 33.93629 71.51953 2136 ft 147 kts 356°
2026-04-15 03:54 33.94656 71.51864 1943 ft 149 kts 356°
2026-04-15 03:55 33.96760 71.51662 1513 ft 153 kts 355°
2026-04-15 03:55 33.97819 71.51583 1325 ft 153 kts 356°
2026-04-15 03:55 33.98866 71.51497 1214 ft 144 kts 356°
2026-04-15 03:55 33.99727 71.51429 1202 ft 98 kts 356°
2026-04-15 03:56 34.00081 71.51399 1195 ft 15 kts 356°
2026-04-15 03:56 34.00190 71.51381 1192 ft 8 kts 330°
2026-04-15 03:56 34.00204 71.51324 1192 ft 8 kts 255°
2026-04-15 03:56 34.00171 71.51271 1192 ft 8 kts 224°
2026-04-15 03:57 34.00125 71.51232 1192 ft 8 kts 208°
2026-04-15 03:57 34.00072 71.51212 1193 ft 8 kts 191°
2026-04-15 03:57 34.00016 71.51207 1194 ft 8 kts 179°
2026-04-15 03:57 33.99960 71.51209 1195 ft 8 kts 178°
2026-04-15 03:58 33.99904 71.51213 1196 ft 8 kts 175°
2026-04-15 03:58 33.99848 71.51220 1197 ft 8 kts 174°
2026-04-15 03:58 33.99792 71.51226 1198 ft 8 kts 176°
2026-04-15 03:58 33.99737 71.51230 1199 ft 8 kts 176°
2026-04-15 03:59 33.99681 71.51234 1200 ft 8 kts 176°
2026-04-15 03:59 33.99626 71.51248 1201 ft 8 kts 160°
2026-04-15 03:59 33.99575 71.51276 1201 ft 8 kts 150°
2026-04-15 03:59 33.99532 71.51320 1202 ft 8 kts 132°
2026-04-15 04:00 33.99500 71.51375 1202 ft 8 kts 118°
2026-04-15 04:00 33.99505 71.51433 1202 ft 5 kts 50°
2026-04-15 04:00 33.99526 71.51464 1202 ft 0 kts 55°
2026-04-15 04:00 33.99527 71.51466 1202 ft 0 kts 55°
2026-04-15 04:01 33.99528 71.51469 1202 ft 1 kts 56°
2026-04-15 04:01 33.99532 71.51476 1202 ft 1 kts 55°
2026-04-15 04:01 33.99538 71.51487 1202 ft 2 kts 56°
2026-04-15 04:01 33.99545 71.51502 1202 ft 2 kts 66°
2026-04-15 04:02 33.99548 71.51523 1202 ft 3 kts 80°
2026-04-15 04:02 33.99553 71.51552 1202 ft 4 kts 78°
2026-04-15 04:02 33.99560 71.51587 1202 ft 5 kts 74°
2026-04-15 04:02 33.99572 71.51629 1202 ft 6 kts 63°
2026-04-15 04:03 33.99576 71.51636 1202 ft 0 kts 52°
2026-04-15 04:03 33.99509 71.51660 1203 ft 0 kts 178°